TimeCDT,TemperatureF,Dew PointF,Humidity,Sea Level PressureIn,VisibilityMPH,Wind Direction,Wind SpeedMPH,Gust SpeedMPH,PrecipitationIn,Events,Conditions,WindDirDegrees,DateUTC
12:54 AM,44.1,33.1,65,30.27,10.0,ENE,6.9,-,N/A,,Clear,70,2012-10-05 05:54:00
1:54 AM,43.0,33.1,68,30.26,10.0,ENE,8.1,-,N/A,,Clear,60,2012-10-05 06:54:00
2:54 AM,42.1,33.1,70,30.24,10.0,ENE,8.1,-,N/A,,Clear,60,2012-10-05 07:54:00
3:54 AM,39.9,32.0,73,30.25,10.0,NE,10.4,-,N/A,,Clear,50,2012-10-05 08:54:00
4:54 AM,39.0,32.0,76,30.25,10.0,NE,10.4,-,N/A,,Clear,50,2012-10-05 09:54:00
5:54 AM,37.9,32.0,79,30.25,10.0,ENE,10.4,-,N/A,,Clear,60,2012-10-05 10:54:00
6:54 AM,37.9,32.0,79,30.22,10.0,East,12.7,-,N/A,,Clear,90,2012-10-05 11:54:00
7:54 AM,37.0,30.9,79,30.26,10.0,ENE,10.4,-,N/A,,Clear,60,2012-10-05 12:54:00
8:54 AM,39.9,32.0,73,30.27,10.0,ENE,12.7,-,N/A,,Scattered Clouds,70,2012-10-05 13:54:00
9:54 AM,43.0,30.9,62,30.29,10.0,ENE,15.0,-,N/A,,Overcast,70,2012-10-05 14:54:00
10:54 AM,43.0,30.9,62,30.31,10.0,ENE,15.0,-,N/A,,Overcast,60,2012-10-05 15:54:00
11:54 AM,46.0,30.9,56,30.31,10.0,ENE,16.1,-,N/A,,Overcast,60,2012-10-05 16:54:00
12:54 PM,46.9,30.9,54,30.28,10.0,East,13.8,-,N/A,,Overcast,80,2012-10-05 17:54:00
1:54 PM,48.0,28.9,48,30.27,10.0,East,16.1,-,N/A,,Overcast,80,2012-10-05 18:54:00
2:54 PM,48.9,28.9,46,30.25,10.0,ENE,18.4,26.5,N/A,,Overcast,60,2012-10-05 19:54:00
3:54 PM,48.9,27.0,43,30.25,10.0,ENE,18.4,24.2,N/A,,Overcast,70,2012-10-05 20:54:00
4:54 PM,46.9,28.9,50,30.26,10.0,NE,20.7,24.2,N/A,,Overcast,50,2012-10-05 21:54:00
5:54 PM,44.1,30.9,60,30.28,10.0,ENE,15.0,-,N/A,,Overcast,60,2012-10-05 22:54:00
6:54 PM,42.1,32.0,67,30.32,10.0,NE,16.1,-,N/A,,Overcast,50,2012-10-05 23:54:00
7:54 PM,42.1,33.1,70,30.34,10.0,NE,15.0,-,N/A,,Overcast,40,2012-10-06 00:54:00
8:54 PM,42.1,32.0,67,30.35,10.0,NE,11.5,-,N/A,,Overcast,50,2012-10-06 01:54:00
9:54 PM,42.1,32.0,67,30.36,10.0,NE,9.2,-,N/A,,Overcast,50,2012-10-06 02:54:00
10:54 PM,41.0,30.9,67,30.36,10.0,NE,9.2,-,N/A,,Overcast,50,2012-10-06 03:54:00
11:54 PM,39.9,33.1,77,30.36,10.0,NE,10.4,-,0.00,Rain,Light Rain,40,2012-10-06 04:54:00